CAPE
0 0 0 0 0 0 0 0 0 0 0 0 0 0 0 0 0 0 1 1 0 0 0 0 0 0 0 0 1 2 2 3 1 1 0 4 5 4 14 20 2 0 0
0 0 0 0 0 0 0 0 0 0 0 0 0 0 0 0 0 0 1 0 0 0 0 0 0 0 0 2 2 2 2 2 1 0 0 0 2 27 26 28 1 2 1
0 0 0 0 0 0 0 0 0 0 0 0 0 0 1 1 0 0 1 0 0 0 0 0 0 0 2 3 3 3 3 2 1 0 1 1 0 0 5 27 17 3 2
0 0 0 0 0 0 0 0 0 0 0 0 0 1 0 1 1 0 0 0 0 0 0 0 0 0 0 3 5 4 3 2 1 2 1 0 0 0 0 0 3 1 2
0 0 0 0 0 0 0 0 0 0 0 0 0 0 0 1 1 1 0 0 0 0 0 0 1 3 4 3 3 5 6 4 2 1 0 0 0 0 0 0 2 2 2
0 0 0 0 0 0 0 0 0 0 0 0 0 0 0 2 0 1 0 0 0 0 0 1 1 1 2 1 2 1 4 12 8 4 6 0 2 2 0 0 2 1 1
0 0 0 0 0 0 0 0 0 0 0 0 0 0 1 1 0 0 0 0 0 0 0 1 1 2 1 1 1 1 2 2 2 7 9 6 0 2 4 0 1 0 0
0 0 0 0 0 0 0 0 0 0 0 0 0 0 0 0 0 0 0 0 0 0 0 1 1 1 2 2 0 1 1 2 1 2 5 5 4 1 1 1 0 1 2
0 0 0 0 0 0 0 0 0 0 0 0 0 0 0 0 0 0 0 0 0 0 0 0 1 1 3 3 2 2 2 2 1 1 2 5 6 1 1 1 2 0 0
0 0 0 0 0 0 0 0 0 0 0 0 0 0 0 0 0 0 0 0 0 0 0 0 2 2 2 3 2 2 4 3 1 2 3 2 3 4 7 11 1 0 0
0 0 0 0 0 0 0 0 0 0 0 0 0 0 0 0 0 0 0 0 0 0 0 0 0 1 3 4 3 3 3 1 1 1 1 1 1 3 4 6 8 11 2
0 0 0 0 0 0 0 0 0 0 0 0 0 0 0 0 0 0 0 0 0 0 0 0 0 0 0 1 1 3 2 1 1 2 2 3 1 1 2 1 2 3 4
0 0 0 0 0 0 0 0 0 0 0 0 0 0 0 0 0 0 0 0 0 0 0 0 0 0 0 0 0 0 0 1 4 1 4 3 2 1 1 1 1 0 2
0 0 0 0 0 0 0 0 0 0 0 0 0 0 0 0 0 0 0 0 0 0 0 0 0 0 0 0 0 0 0 0 1 4 3 1 1 2 2 1 1 0 2
0 0 0 0 0 0 0 0 0 0 0 0 0 0 0 0 0 0 0 0 0 0 0 0 0 0 0 0 0 0 0 0 0 0 0 0 0 0 2 1 1 0 2
0 0 0 0 0 0 0 0 0 0 0 0 0 0 0 0 0 0 0 0 0 0 0 0 0 0 0 0 0 0 0 0 0 0 0 0 0 0 0 0 0 0 1
0 0 0 0 0 0 0 0 0 0 0 0 0 0 0 0 0 0 0 0 0 0 0 0 0 0 0 0 0 0 0 0 0 0 0 0 0 0 0 0 0 0 0
0 0 0 0 0 0 0 0 0 0 0 0 0 0 0 0 0 0 0 0 0 0 0 0 0 0 0 0 0 0 0 0 0 0 0 0 0 0 0 0 0 0 0
0 0 0 0 0 0 0 0 0 0 0 0 0 0 0 0 0 0 0 0 0 0 0 0 0 0 0 0 0 0 0 0 0 0 0 0 0 0 0 0 0 0 0
0 0 0 0 0 0 0 0 0 0 0 0 0 0 0 0 0 0 0 0 0 0 0 0 0 0 0 0 0 0 0 0 0 0 0 0 0 0 0 0 0 0 0
0 0 0 0 0 0 0 0 0 0 0 0 0 0 0 0 0 0 0 0 0 0 0 0 0 0 0 0 0 0 0 0 0 0 0 0 0 0 0 0 0 0 0
0 0 0 0 0 0 0 0 0 0 0 0 0 0 0 0 0 0 0 0 0 0 0 0 0 0 0 0 0 0 0 0 0 0 0 0 0 0 0 0 0 0 0
0 0 0 0 0 0 0 0 0 0 0 0 0 0 0 0 0 0 0 0 0 0 0 0 0 0 0 0 0 0 0 0 0 0 0 0 0 0 0 0 0 0 0
0 0 0 0 0 0 0 0 0 0 0 0 0 0 0 0 0 0 0 0 0 0 0 0 0 0 0 0 0 0 0 0 0 0 0 0 0 0 0 0 0 0 0
0 0 0 0 0 0 0 0 0 0 0 0 0 0 0 0 0 0 0 0 0 0 0 0 0 0 0 0 0 0 0 0 0 0 0 0 0 0 0 0 0 0 0
0 0 0 0 0 0 0 0 0 0 0 0 0 0 0 0 0 0 0 0 0 0 0 0 0 0 0 0 0 0 0 0 0 0 0 0 0 0 0 0 0 0 0
CIN
-0 -0 -0 -0 -0 -0 -0 -0 -0 -0 -0 -0 -0 -0 -0 -0 -0 -0 -0 -0 -0 -0 -0 -0 -0 -0 -0 -0 -0 -0 -0 -0 -0 -0 -0 -45 -15 -10 -13 -32 -70 -0 -0
-0 -0 -0 -0 -0 -0 -0 -0 -0 -0 -0 -0 -0 -0 -0 -0 -0 -0 -0 -0 -0 -0 -0 -0 -0 -0 -0 -0 -0 -0 -0 -0 -0 -0 -0 -0 -1 -38 -17 -19 -13 -0 -0
-0 -0 -0 -0 -0 -0 -0 -0 -0 -0 -0 -0 -0 -0 -0 -0 -0 -0 -0 -0 -0 -0 -0 -0 -0 -0 -0 -0 -0 -0 -0 -0 -0 -0 -0 -0 -0 -0 -46 -28 -5 -0 -0
-0 -0 -0 -0 -0 -0 -0 -0 -0 -0 -0 -0 -0 -0 -0 -0 -0 -0 -0 -0 -0 -0 -0 -0 -0 -0 -0 -0 -0 -0 -0 -0 -0 -0 -0 -0 -0 -0 -0 -0 -23 -0 -0
-0 -0 -0 -0 -0 -0 -0 -0 -0 -0 -0 -0 -0 -0 -0 -0 -0 -0 -0 -0 -0 -0 -0 -0 -0 -0 -0 -0 -0 -0 -0 -0 -0 -0 -0 -0 -0 -0 -0 -0 -0 -0 -0
-0 -0 -0 -0 -0 -0 -0 -0 -0 -0 -0 -0 -0 -0 -0 -0 -0 -0 -0 -0 -0 -0 -0 -0 -0 -0 -0 -0 -0 -0 -0 -0 -0 -0 -0 -0 -0 -0 -0 -0 -0 -0 -0
-0 -0 -0 -0 -0 -0 -0 -0 -0 -0 -0 -0 -0 -0 -0 -0 -0 -0 -0 -0 -0 -0 -0 -0 -0 -0 -0 -0 -0 -0 -0 -0 -0 -0 -0 -0 -0 -0 -0 -0 -0 -0 -0
-0 -0 -0 -0 -0 -0 -0 -0 -0 -0 -0 -0 -0 -0 -0 -0 -0 -0 -0 -0 -0 -0 -0 -0 -0 -0 -0 -0 -0 -0 -0 -0 -0 -0 -0 -0 -0 -0 -0 -0 -0 -0 -0
-0 -0 -0 -0 -0 -0 -0 -0 -0 -0 -0 -0 -0 -0 -0 -0 -0 -0 -0 -0 -0 -0 -0 -0 -0 -0 -0 -0 -0 -0 -0 -0 -0 -0 -0 -0 -0 -0 -0 -0 -0 -0 -0
-0 -0 -0 -0 -0 -0 -0 -0 -0 -0 -0 -0 -0 -0 -0 -0 -0 -0 -0 -0 -0 -0 -0 -0 -0 -0 -0 -0 -0 -0 -0 -0 -0 -0 -0 -0 -0 -0 -0 -0 -0 -0 -0
-0 -0 -0 -0 -0 -0 -0 -0 -0 -0 -0 -0 -0 -0 -0 -0 -0 -0 -0 -0 -0 -0 -0 -0 -0 -0 -0 -0 -0 -0 -0 -0 -0 -0 -0 -0 -0 -0 -0 -0 -0 -0 -0
-0 -0 -0 -0 -0 -0 -0 -0 -0 -0 -0 -0 -0 -0 -0 -0 -0 -0 -0 -0 -0 -0 -0 -0 -0 -0 -0 -0 -0 -0 -0 -0 -0 -0 -0 -0 -0 -0 -0 -0 -0 -0 -0
-0 -0 -0 -0 -0 -0 -0 -0 -0 -0 -0 -0 -0 -0 -0 -0 -0 -0 -0 -0 -0 -0 -0 -0 -0 -0 -0 -0 -0 -0 -0 -0 -0 -0 -0 -0 -0 -0 -0 -0 -0 -0 -0
-0 -0 -0 -0 -0 -0 -0 -0 -0 -0 -0 -0 -0 -0 -0 -0 -0 -0 -0 -0 -0 -0 -0 -0 -0 -0 -0 -0 -0 -0 -0 -0 -0 -0 -0 -0 -0 -0 -0 -0 -0 -0 -0
-0 -0 -0 -0 -0 -0 -0 -0 -0 -0 -0 -0 -0 -0 -0 -0 -0 -0 -0 -0 -0 -0 -0 -0 -0 -0 -0 -0 -0 -0 -0 -0 -0 -0 -0 -0 -0 -0 -0 -0 -0 -0 -0
-0 -0 -0 -0 -0 -0 -0 -0 -0 -0 -0 -0 -0 -0 -0 -0 -0 -0 -0 -0 -0 -0 -0 -0 -0 -0 -0 -0 -0 -0 -0 -0 -0 -0 -0 -0 -0 -0 -0 -0 -0 -0 -0
-0 -0 -0 -0 -0 -0 -0 -0 -0 -0 -0 -0 -0 -0 -0 -0 -0 -0 -0 -0 -0 -0 -0 -0 -0 -0 -0 -0 -0 -0 -0 -0 -0 -0 -0 -0 -0 -0 -0 -0 -0 -0 -0
-0 -0 -0 -0 -0 -0 -0 -0 -0 -0 -0 -0 -0 -0 -0 -0 -0 -0 -0 -0 -0 -0 -0 -0 -0 -0 -0 -0 -0 -0 -0 -0 -0 -0 -0 -0 -0 -0 -0 -0 -0 -0 -0
-0 -0 -0 -0 -0 -0 -0 -0 -0 -0 -0 -0 -0 -0 -0 -0 -0 -0 -0 -0 -0 -0 -0 -0 -0 -0 -0 -0 -0 -0 -0 -0 -0 -0 -0 -0 -0 -0 -0 -0 -0 -0 -0
-0 -0 -0 -0 -0 -0 -0 -0 -0 -0 -0 -0 -0 -0 -0 -0 -0 -0 -0 -0 -0 -0 -0 -0 -0 -0 -0 -0 -0 -0 -0 -0 -0 -0 -0 -0 -0 -0 -0 -0 -0 -0 -0
-0 -0 -0 -0 -0 -0 -0 -0 -0 -0 -0 -0 -0 -0 -0 -0 -0 -0 -0 -0 -0 -0 -0 -0 -0 -0 -0 -0 -0 -0 -0 -0 -0 -0 -0 -0 -0 -0 -0 -0 -0 -0 -0
-0 -0 -0 -0 -0 -0 -0 -0 -0 -0 -0 -0 -0 -0 -0 -0 -0 -0 -0 -0 -0 -0 -0 -0 -0 -0 -0 -0 -0 -0 -0 -0 -0 -0 -0 -0 -0 -0 -0 -0 -0 -0 -0
-0 -0 -0 -0 -0 -0 -0 -0 -0 -0 -0 -0 -0 -0 -0 -0 -0 -0 -0 -0 -0 -0 -0 -0 -0 -0 -0 -0 -0 -0 -0 -0 -0 -0 -0 -0 -0 -0 -0 -0 -0 -0 -0
-0 -0 -0 -0 -0 -0 -0 -0 -0 -0 -0 -0 -0 -0 -0 -0 -0 -0 -0 -0 -0 -0 -0 -0 -0 -0 -0 -0 -0 -0 -0 -0 -0 -0 -0 -0 -0 -0 -0 -0 -0 -0 -0
-0 -0 -0 -0 -0 -0 -0 -0 -0 -0 -0 -0 -0 -0 -0 -0 -0 -0 -0 -0 -0 -0 -0 -0 -0 -0 -0 -0 -0 -0 -0 -0 -0 -0 -0 -0 -0 -0 -0 -0 -0 -0 -0
-0 -0 -0 -0 -0 -0 -0 -0 -0 -0 -0 -0 -0 -0 -0 -0 -0 -0 -0 -0 -0 -0 -0 -0 -0 -0 -0 -0 -0 -0 -0 -0 -0 -0 -0 -0 -0 -0 -0 -0 -0 -0 -0
Wind_Speed
26 28 31 32 33 33 35 37 38 37 36 37 35 33 30 19 25 27 18 13 11 10 9 7 4 2 7 14 19 23 29 32 36 33 29 27 31 35 37 40 39 37 49
26 28 31 31 32 34 35 37 37 37 36 37 33 32 25 19 24 24 13 15 13 14 12 9 5 3 8 13 15 21 25 27 32 32 30 28 30 33 35 39 38 42 50
26 29 30 31 32 33 34 37 37 36 36 36 33 28 19 19 25 18 14 14 13 13 10 9 8 8 9 10 13 18 21 24 26 28 27 25 26 28 28 31 41 39 45
26 28 29 30 32 33 34 36 37 36 36 36 32 25 18 19 26 16 15 14 14 14 12 12 12 12 10 11 11 13 17 22 22 24 24 25 27 26 26 31 35 40 42
26 28 29 30 31 32 34 35 36 36 36 35 29 25 17 19 23 16 17 14 15 14 14 14 14 14 14 13 10 11 15 17 20 21 20 23 27 24 27 34 35 36 37
26 27 28 30 31 32 33 35 36 36 35 35 30 24 18 19 20 19 15 14 16 15 17 16 14 14 14 13 13 13 11 13 14 17 19 25 27 23 26 33 38 40 36
25 26 27 29 30 32 33 35 37 36 34 36 30 23 20 19 20 21 18 14 16 16 18 18 16 14 12 11 12 13 13 10 9 9 14 22 23 24 31 30 38 36 33
25 26 27 29 30 31 33 34 35 35 35 34 32 23 20 18 20 20 17 15 16 17 18 20 20 18 14 12 11 14 12 12 8 5 7 9 16 21 31 32 31 33 28
25 25 27 28 30 31 32 32 33 34 34 33 33 23 22 18 20 21 19 16 16 17 17 19 20 20 18 14 13 13 13 13 9 8 6 2 1 7 18 31 31 33 31
24 25 27 28 29 30 30 31 31 32 32 32 34 30 21 19 19 21 20 17 18 17 17 16 20 21 21 20 16 13 16 11 9 9 9 10 7 6 10 23 28 31 30
25 26 27 28 29 29 30 30 30 31 33 33 34 33 29 21 18 19 21 19 18 17 17 16 16 19 22 21 20 19 15 10 13 14 13 10 11 10 6 14 16 23 26
25 26 26 27 28 28 30 30 30 31 33 33 33 34 32 28 21 18 18 20 19 18 17 15 15 18 19 21 21 20 18 15 18 19 16 15 12 10 8 8 9 11 10
25 26 27 27 27 28 30 29 30 30 32 33 33 33 32 30 28 22 20 17 18 18 17 17 18 19 19 19 21 20 18 15 15 19 18 16 14 10 11 9 6 6 5
25 26 26 27 27 28 29 29 30 30 31 32 31 31 31 31 30 28 23 20 16 16 16 18 19 20 21 19 19 19 18 17 15 14 15 14 13 13 13 9 7 6 7
25 25 26 25 26 28 29 28 28 28 28 29 29 29 30 30 29 28 29 25 22 20 17 19 22 21 22 21 19 20 21 20 16 13 12 12 13 14 14 11 11 9 10
25 24 24 25 25 26 28 28 27 27 26 27 27 28 28 28 27 28 29 30 30 30 32 22 27 24 22 19 19 20 20 22 21 19 17 15 13 11 10 11 12 12 11
24 24 24 24 24 24 25 26 29 26 25 26 26 27 27 27 26 27 28 30 30 32 35 31 24 21 23 26 24 23 24 21 20 21 20 19 18 15 14 14 12 11 10
23 23 23 23 23 22 23 24 24 26 27 26 25 26 26 26 26 26 27 29 30 29 33 35 34 32 31 27 18 23 25 27 23 21 22 21 20 19 18 17 16 15 13
23 22 22 22 21 21 21 22 22 23 24 24 24 24 24 26 27 27 28 32 32 30 31 32 31 32 32 32 33 33 29 25 30 28 25 23 22 22 22 22 21 19 18
22 22 22 21 21 20 20 21 21 21 22 23 23 23 22 23 25 26 27 29 30 31 31 31 31 32 33 34 35 36 39 39 38 35 33 30 29 28 26 24 23 22 20
21 21 20 20 19 19 19 19 19 19 20 20 20 20 21 22 23 23 24 24 26 27 27 28 28 28 30 32 33 35 35 35 34 33 32 31 30 29 27 26 25 23 22
19 19 19 18 18 18 17 17 18 18 17 17 18 18 19 19 21 21 21 21 21 22 22 23 24 24 25 25 27 28 30 30 30 29 28 28 27 26 25 25 24 23 22
18 18 17 16 16 16 16 16 16 16 16 16 16 16 16 17 17 17 17 18 18 19 19 19 20 20 20 20 21 21 23 24 24 25 25 24 24 24 23 23 22 21 21
19 18 17 15 14 13 13 13 13 14 14 13 14 14 14 14 14 14 14 14 15 15 15 15 16 16 16 16 17 17 17 18 18 19 19 20 21 20 20 20 20 20 20
19 18 17 15 14 13 12 11 11 11 11 11 11 11 11 11 11 11 11 11 11 11 11 11 11 11 11 11 11 12 13 13 14 14 15 15 16 16 17 17 18 19 19
18 18 17 15 13 12 12 11 10 10 10 9 9 10 9 9 8 8 8 8 7 7 7 7 6 6 6 6 7 7 7 8 8 9 10 12 12 13 13 14 15 16 17
Wind_Direction
39 36 34 33 34 35 33 31 30 30 30 30 31 33 36 31 36 37 39 344 5 356 347 358 351 175 189 177 180 183 184 185 180 183 185 178 184 182 185 190 192 191 190
43 39 37 38 38 37 36 34 33 33 34 34 38 39 41 33 40 42 14 351 358 349 351 6 27 90 135 156 164 174 177 181 179 169 180 183 181 188 190 193 197 195 189
46 42 41 43 41 40 39 37 37 38 38 38 42 45 36 35 44 37 6 26 13 3 35 36 44 66 109 142 145 161 170 172 176 178 177 181 180 188 192 193 186 180 186
49 47 47 46 45 45 44 41 41 42 41 42 47 50 39 41 50 27 4 27 26 11 33 51 59 68 83 121 135 148 161 168 171 170 175 175 179 184 189 185 185 180 182
54 52 52 51 49 50 48 46 45 46 46 47 53 54 40 44 51 16 5 37 45 31 50 54 67 63 73 85 111 135 150 161 169 170 175 183 189 193 188 190 182 177 181
59 57 57 55 54 53 51 49 48 50 50 51 57 58 48 46 37 13 29 36 43 46 53 52 63 59 78 78 87 88 105 146 163 177 188 189 192 199 195 188 184 180 185
65 63 61 60 58 57 54 53 52 53 55 54 60 61 57 45 35 17 20 45 55 53 51 53 59 58 69 84 83 81 85 90 117 157 178 191 200 206 199 196 191 189 191
69 69 67 64 62 61 59 58 57 58 58 58 60 64 62 50 36 31 34 39 51 57 59 51 53 54 63 76 86 79 81 76 79 104 160 198 211 217 209 202 190 185 185
73 73 70 68 66 65 64 63 63 61 62 62 62 64 64 56 36 39 40 44 58 62 63 53 49 51 48 63 71 80 74 68 68 72 79 73 223 205 203 191 191 183 188
80 78 75 73 71 68 69 68 68 67 67 66 65 66 65 63 37 38 46 49 59 66 64 60 44 44 47 52 63 68 65 58 56 59 68 50 52 122 169 188 195 190 192
85 81 77 75 74 74 73 73 72 71 70 69 68 68 68 67 61 44 42 53 61 65 63 60 52 44 44 49 53 58 68 84 70 66 58 67 75 98 129 180 190 197 201
92 85 84 81 79 79 77 77 76 75 73 72 71 71 70 69 67 58 48 43 49 60 62 62 57 47 48 48 50 53 59 64 57 58 62 62 68 76 88 135 163 178 190
97 91 87 86 83 82 79 81 78 78 76 75 74 73 72 72 73 70 70 60 51 53 55 55 50 48 48 47 43 45 48 60 57 56 57 66 65 69 71 89 111 145 149
101 97 94 91 88 85 83 84 82 81 79 78 77 76 75 75 75 75 77 78 65 61 50 47 47 47 46 45 43 44 43 47 52 59 56 54 53 55 59 60 83 94 110
107 104 100 98 93 89 86 86 86 86 84 82 81 80 80 79 78 79 80 81 83 84 82 45 41 41 42 43 45 42 38 37 40 41 45 45 43 46 49 48 55 61 66
111 111 108 103 100 95 91 89 89 90 89 87 85 84 85 86 85 84 83 84 85 87 90 49 39 39 40 39 41 41 38 36 34 35 36 37 38 35 39 40 44 49 56
116 114 113 110 106 102 98 94 88 92 92 90 88 87 87 87 88 88 87 88 87 89 88 88 82 49 39 38 38 38 37 33 33 35 35 34 35 36 36 36 33 33 31
122 119 117 117 113 111 105 101 98 93 90 91 91 91 91 90 89 90 91 91 90 89 90 89 90 91 92 93 64 40 38 38 37 36 37 35 33 35 34 32 28 29 24
127 126 125 122 121 118 112 108 105 102 99 96 97 95 94 93 92 92 91 90 90 91 91 91 92 91 92 93 93 94 96 38 40 40 37 36 34 35 36 35 33 30 30
132 131 128 125 122 120 116 112 109 107 104 100 99 99 100 97 95 93 92 91 90 90 91 91 91 90 89 87 86 85 73 65 58 49 46 42 39 39 38 35 33 32 28
134 133 130 126 126 122 119 119 117 114 111 107 105 106 105 99 97 97 97 97 95 93 91 90 91 90 88 84 78 70 64 62 60 54 48 43 42 41 39 37 35 33 31
134 131 131 130 126 125 122 118 120 122 121 118 115 112 109 107 102 100 99 99 99 99 99 98 96 93 91 89 84 76 65 56 51 48 44 40 39 37 35 34 32 29 27
138 136 136 133 126 124 123 123 123 123 127 128 121 117 118 114 111 108 106 104 102 100 100 98 95 93 94 93 91 88 80 71 62 51 41 37 33 30 27 22 19 13 11
146 146 145 140 131 127 126 125 125 129 132 133 132 133 126 122 121 119 115 115 113 109 104 101 97 95 91 88 85 82 78 71 66 61 54 44 36 30 26 20 15 11 7
154 155 153 150 145 140 134 132 132 131 135 139 139 137 138 137 135 130 127 125 122 119 113 110 107 102 98 92 85 78 71 64 56 51 47 41 35 29 23 16 10 4 359
160 160 160 155 153 150 148 145 145 143 145 148 149 152 152 151 146 142 137 129 130 129 125 121 117 111 98 87 77 71 65 53 46 39 33 25 19 15 12 8 3 357 353